Weather History for LTBU - September, 2013

Change the Weather History Date:

Friday, September 27, 2013

  Actual Average Record
Temperature  
Mean Temperature 70 °F -  
Max Temperature 80 °F - - ()
Min Temperature 60 °F - - ()
Cooling Degree Days 5    
Growing Degree Days 20 (Base 50)    
Moisture  
Dew Point 58 °F    
Average Humidity 73    
Maximum Humidity 100    
Minimum Humidity 34    
Precipitation  
Precipitation 0.00 in - - ()
Sea Level Pressure  
Sea Level Pressure 29.92 in    
Wind  
Wind Speed 10 mph ()    
Max Wind Speed 24 mph    
Max Gust Speed -    
Visibility 5.9 miles    
Events Rain , Thunderstorm    
T = Trace of Precipitation, MM = Missing Value Source: Averaged Metar Reports

Daily Weather History Graph

Daily Weather History Graph

Search for Another Location

Airport or City:

Trip Planner

Search our weather history database for the weather conditions in past years. The results will help you decide how hot, cold, wet, or windy it might be!

Date:

Astronomy

Sep. 27, 2013 Rise Set
Actual Time 7:00 AM EEST 6:57 PM EEST
Civil Twilight 6:33 AM EEST 7:24 PM EEST
Nautical Twilight 6:01 AM EEST 7:56 PM EEST
Astronomical Twilight 5:28 AM EEST 8:28 PM EEST
Moon No Moon Rise 2:24 PM EEST (9/27)
Length of Visible Light 12h 51m
Length of Day
11h 56m
Waning Gibbous, 48% of the Moon is Illuminated
Sep 27
Waning Gibbous
Oct 5
New
Oct 12
First Quarter
Oct 19
Full
Oct 27
Last Quarter

Hourly Weather History & Observations

Time (EEST) Temp. Heat Index Dew Point Humidity Pressure Visibility Wind Dir Wind Speed Gust Speed Precip Events Conditions
12:20 AM 68.0 °F - 51.8 °F 56% 29.86 in - WSW 13.8 mph - N/A   Clear
12:50 AM 69.8 °F - 50.0 °F 49% 29.86 in - WSW 16.1 mph - N/A   Clear
1:20 AM 68.0 °F - 51.8 °F 56% 29.86 in - WSW 16.1 mph - N/A   Clear
1:50 AM 66.2 °F - 53.6 °F 64% 29.86 in - NW 10.4 mph - N/A   Clear
2:20 AM 64.4 °F - 53.6 °F 68% 29.86 in - SW 10.4 mph - N/A   Clear
2:50 AM 66.2 °F - 55.4 °F 68% 29.86 in - West 10.4 mph - N/A   Clear
3:20 AM 62.6 °F - 55.4 °F 77% 29.86 in - WSW 11.5 mph - N/A   Clear
3:50 AM 62.6 °F - 57.2 °F 82% 29.86 in - Variable 2.3 mph - N/A   Clear
4:20 AM 62.6 °F - 57.2 °F 82% 29.86 in - West 6.9 mph - N/A   Clear
4:50 AM 62.6 °F - 57.2 °F 82% 29.86 in - WSW 6.9 mph - N/A   Clear
5:20 AM 60.8 °F - 57.2 °F 88% 29.86 in - West 4.6 mph - N/A   Clear
5:50 AM 62.6 °F - 59.0 °F 88% 29.86 in - NNW 4.6 mph - N/A   Clear
6:20 AM 64.4 °F - 60.8 °F 88% 29.86 in - West 3.5 mph - N/A   Clear
6:50 AM 64.4 °F - 60.8 °F 88% 29.86 in 6.2 mi SW 5.8 mph - N/A   Mostly Cloudy
7:20 AM 64.4 °F - 62.6 °F 94% 29.89 in 6.2 mi West 4.6 mph - N/A   Mostly Cloudy
7:50 AM 66.2 °F - 62.6 °F 88% 29.89 in 6.2 mi West 6.9 mph - N/A   Partly Cloudy
8:20 AM 66.2 °F - 64.4 °F 94% 29.89 in - West 6.9 mph - N/A   Clear
8:50 AM 68.0 °F - 64.4 °F 88% 29.89 in 5.0 mi West 10.4 mph - N/A   Scattered Clouds
9:20 AM 69.8 °F - 62.6 °F 78% 29.92 in 5.0 mi West 11.5 mph - N/A   Scattered Clouds
9:50 AM 69.8 °F - 62.6 °F 78% 29.92 in 6.2 mi West 8.1 mph - N/A   Scattered Clouds
10:20 AM 71.6 °F - 62.6 °F 73% 29.92 in 6.2 mi West 6.9 mph - N/A   Scattered Clouds
10:50 AM 75.2 °F - 60.8 °F 61% 29.92 in - WNW 5.8 mph - N/A   Clear
11:20 AM 78.8 °F - 59.0 °F 51% 29.92 in - Variable 3.5 mph - N/A   Clear
11:50 AM 80.6 °F - 51.8 °F 37% 29.92 in - North 10.4 mph - N/A   Clear
12:20 PM 80.6 °F 80.3 °F 53.6 °F 39% 29.92 in 6.2 mi North 9.2 mph - N/A   Partly Cloudy
12:50 PM 80.6 °F - 50.0 °F 34% 29.89 in 6.2 mi North 6.9 mph - N/A   Scattered Clouds
1:20 PM 80.6 °F - 50.0 °F 34% 29.89 in 6.2 mi ENE 8.1 mph - N/A   Scattered Clouds
1:50 PM 78.8 °F - 50.0 °F 36% 29.89 in 6.2 mi ENE 17.3 mph - N/A   Scattered Clouds
2:17 PM 77.0 °F - 51.8 °F 41% 29.89 in 6.2 mi East 13.8 mph - N/A Thunderstorm Thunderstorm
2:20 PM 77.0 °F - 51.8 °F 41% 29.89 in 6.2 mi East 13.8 mph - N/A Thunderstorm Thunderstorm
2:50 PM 71.6 °F - 55.4 °F 57% 29.92 in 5.0 mi ESE 12.7 mph - N/A Thunderstorm Thunderstorm
3:20 PM 71.6 °F - 59.0 °F 64% 29.92 in 5.0 mi SE 11.5 mph - N/A Thunderstorm Thunderstorm
3:50 PM 71.6 °F - 60.8 °F 69% 29.92 in 6.2 mi SE 6.9 mph - N/A   Scattered Clouds
4:20 PM 73.4 °F - 59.0 °F 61% 29.92 in 6.2 mi NE 17.3 mph - N/A   Scattered Clouds
4:50 PM 69.8 °F - 59.0 °F 68% 29.92 in 6.2 mi NE 19.6 mph - N/A   Scattered Clouds
5:20 PM 68.0 °F - 57.2 °F 68% 29.92 in 6.2 mi NE 24.2 mph - N/A   Scattered Clouds
5:50 PM 66.2 °F - 59.0 °F 78% 29.92 in 6.2 mi NE 21.9 mph - N/A   Scattered Clouds
6:20 PM 64.4 °F - 59.0 °F 83% 29.92 in 6.2 mi NE 24.2 mph - N/A   Mostly Cloudy
6:50 PM 64.4 °F - 59.0 °F 83% 29.95 in 6.2 mi NE 21.9 mph - N/A   Mostly Cloudy
7:20 PM 64.4 °F - 57.2 °F 77% 29.95 in 6.2 mi NE 23.0 mph - N/A   Mostly Cloudy
7:50 PM 64.4 °F - 57.2 °F 77% 29.95 in 6.2 mi NE 18.4 mph - N/A   Mostly Cloudy
8:20 PM 62.6 °F - 59.0 °F 88% 29.98 in 6.2 mi NE 17.3 mph - N/A Rain , Thunderstorm Light Thunderstorms and Rain
8:50 PM 62.6 °F - 59.0 °F 88% 29.98 in 6.2 mi NNE 15.0 mph - N/A Rain , Thunderstorm Light Thunderstorms and Rain
9:20 PM 60.8 °F - 59.0 °F 94% 30.01 in 5.0 mi NE 12.7 mph - N/A Rain , Thunderstorm Thunderstorms and Rain
9:39 PM 60.8 °F - 59.0 °F 94% 30.01 in 5.0 mi NE 15.0 mph - N/A   Mostly Cloudy
9:50 PM 60.8 °F - 59.0 °F 94% 30.01 in 5.0 mi NE 13.8 mph - N/A   Mostly Cloudy
10:12 PM 60.8 °F - 59.0 °F 94% 30.01 in 5.0 mi NE 11.5 mph - N/A Rain , Thunderstorm Thunderstorms and Rain
10:20 PM 60.8 °F - 59.0 °F 94% 30.01 in 5.0 mi NE 11.5 mph - N/A Rain , Thunderstorm Thunderstorms and Rain
10:50 PM 60.8 °F - 59.0 °F 94% 30.01 in 6.2 mi NE 11.5 mph - N/A   Mostly Cloudy
11:20 PM 60.8 °F - 60.8 °F 100% 30.01 in 6.2 mi ENE 10.4 mph - N/A   Mostly Cloudy
11:50 PM 60.8 °F - 59.0 °F 94% 30.01 in 6.2 mi ENE 10.4 mph - N/A   Mostly Cloudy